Wind_Speed
7 8 8 9 10 10 9 10 10 9 9 9 10 9 9 8 7 6 5 4 3 3 3 2 2 2 2 3 2 2 2 1 1 1 2 2 2 3 3 4 4 4 4
6 6 7 8 9 9 9 10 10 10 9 8 9 9 8 7 7 7 6 5 4 4 3 3 3 3 2 2 3 3 3 3 3 3 3 4 3 3 4 4 4 4 4
7 7 7 7 8 8 8 9 10 10 8 8 8 8 8 7 7 7 7 6 5 5 5 4 4 4 3 3 3 3 4 4 4 4 4 4 5 5 4 4 4 5 5
9 8 7 7 8 8 8 9 9 9 9 9 9 9 9 8 7 7 6 6 6 5 5 5 4 4 4 4 3 3 4 4 4 4 4 5 6 6 7 6 6 6 6
9 9 8 7 8 8 9 9 9 9 9 9 10 10 10 8 7 7 6 6 5 5 5 5 4 4 4 4 4 4 4 5 5 5 6 6 7 8 8 8 8 8 8
10 10 9 9 9 9 9 9 9 10 10 9 10 10 8 7 6 6 6 6 6 5 4 5 5 4 4 4 5 5 5 5 6 7 7 7 8 8 8 8 9 10 10
11 12 11 10 10 10 10 10 10 10 10 10 9 8 6 6 6 6 6 6 6 5 4 4 5 5 4 5 5 6 6 7 7 8 8 8 8 9 9 9 10 10 11
11 11 11 11 10 10 10 10 10 10 10 10 10 6 5 5 6 6 6 6 6 5 5 5 6 6 5 5 6 7 7 7 8 7 8 8 8 9 9 10 11 11 12
12 11 11 11 11 11 11 11 11 11 11 11 10 8 6 5 6 7 6 6 6 5 6 6 7 7 7 7 7 8 8 8 9 9 9 9 9 10 11 11 12 12 13
12 10 10 11 12 12 12 12 11 11 11 11 10 8 7 7 7 7 7 6 7 6 6 7 7 8 8 8 9 9 8 9 9 9 10 11 12 12 12 13 13 13 13
12 11 11 11 12 12 11 11 10 9 10 11 10 9 8 8 8 7 7 7 8 8 8 8 8 8 9 9 9 9 9 9 9 10 11 12 13 13 13 13 13 13 13
13 12 12 13 13 12 11 11 10 9 10 10 11 10 10 10 9 8 8 8 9 9 9 9 9 9 10 9 10 10 10 10 11 11 12 12 13 13 13 14 14 14 15
15 13 13 14 13 12 11 11 10 11 11 11 11 11 11 11 10 10 9 9 10 10 10 10 9 10 10 11 10 10 11 11 11 12 12 13 13 13 13 14 14 15 16
16 15 14 14 13 13 13 12 11 12 12 13 13 12 12 12 12 12 11 11 11 11 11 11 11 11 12 11 11 11 11 12 13 13 13 13 13 13 13 14 15 16 17
17 16 15 15 14 14 15 14 14 14 14 14 14 14 13 14 14 14 13 13 13 13 12 12 12 12 12 13 13 13 13 13 14 13 13 13 14 14 14 15 17 17 18
19 18 17 16 16 17 17 16 16 15 14 14 14 15 16 16 16 16 15 15 15 15 14 14 13 13 13 14 14 14 14 14 14 13 14 14 14 15 16 17 17 18 19
20 20 19 18 18 18 18 18 17 16 15 15 15 15 16 16 17 17 16 16 16 16 16 15 15 15 15 15 15 14 14 15 15 15 15 16 16 16 17 17 18 19 20
21 21 20 19 18 18 18 18 18 17 16 16 16 16 16 16 16 16 17 17 17 18 17 16 16 16 16 16 15 15 15 16 16 16 16 16 17 17 18 18 18 19 19
22 22 22 21 19 19 19 19 19 18 17 17 17 17 16 16 16 16 17 17 17 17 17 16 16 16 16 16 15 15 15 15 16 17 17 17 17 18 18 19 19 20 20
23 23 23 22 21 20 20 19 19 18 18 18 18 18 17 17 17 17 17 17 17 17 17 17 17 17 17 17 16 15 16 16 17 17 17 18 19 19 20 20 20 21 22
24 24 24 23 22 21 21 20 20 20 19 19 20 20 19 19 19 19 19 18 18 18 17 17 17 18 18 18 18 17 17 18 18 19 19 19 20 21 21 22 22 23 23
25 24 23 23 22 22 22 21 21 21 21 21 21 21 21 20 20 20 19 19 18 18 18 18 19 19 20 20 19 18 19 19 19 20 21 21 22 22 23 24 24 25 25
26 25 24 24 23 24 23 22 21 21 21 21 21 21 21 22 22 22 22 21 20 20 20 20 20 20 20 21 21 21 21 21 21 21 21 22 23 24 25 25 26 26 27
28 27 26 25 24 24 24 23 23 22 21 22 22 23 23 23 23 22 22 22 21 21 21 20 21 21 21 21 22 22 22 22 22 23 23 24 24 25 26 27 27 28 28
30 29 29 28 27 26 26 25 24 23 23 23 23 24 24 24 23 22 22 22 22 22 21 21 22 22 22 22 23 23 23 24 24 24 24 25 26 27 27 28 28 28 29
30 30 29 29 28 27 26 26 26 25 24 24 24 24 24 23 23 22 22 22 23 23 22 22 22 22 22 23 23 24 25 26 25 25 26 27 27 28 29 29 29 29 30
Wind_Direction
353 358 4 3 1 359 359 0 4 2 3 8 6 6 5 0 358 357 355 346 341 339 344 323 306 293 261 244 229 232 245 249 255 268 294 298 317 320 321 315 312 308 301
334 343 351 351 351 352 353 354 355 353 352 356 359 360 358 352 344 338 339 338 330 317 317 309 291 275 266 249 250 258 263 268 279 281 280 283 293 305 314 314 306 300 298
316 322 331 336 336 339 345 342 343 347 347 348 349 348 345 341 338 331 330 331 323 313 313 307 293 269 262 254 257 264 267 270 280 286 283 283 289 294 298 305 304 300 298
305 308 314 318 322 326 330 331 335 339 342 341 340 339 339 332 332 334 332 331 325 318 313 302 298 282 270 262 257 272 270 270 276 284 288 290 293 296 299 301 297 296 294
302 303 301 304 311 318 318 322 328 328 334 338 340 337 335 335 335 335 336 334 331 328 315 305 304 298 287 278 267 273 269 269 278 283 285 288 289 291 291 290 291 291 290
292 298 296 298 302 307 308 312 321 324 321 324 328 329 328 333 332 325 324 326 324 320 311 308 310 303 296 283 280 279 279 279 281 287 285 285 286 291 289 287 287 286 289
282 289 294 294 294 297 298 302 307 312 314 317 321 326 324 328 331 325 322 320 316 310 301 301 304 294 287 284 282 280 283 284 288 288 288 286 285 292 291 289 288 288 290
279 281 287 286 281 284 289 294 299 304 308 309 314 320 316 320 330 330 328 319 312 302 295 295 301 295 287 285 284 283 283 286 288 288 291 288 287 290 293 291 288 289 290
273 272 277 278 276 285 289 290 290 296 299 298 307 314 322 318 319 325 324 316 312 304 296 295 295 292 287 285 287 289 287 285 287 288 289 289 291 291 292 292 289 286 285
270 269 278 280 283 285 288 291 288 286 286 292 298 309 314 317 318 320 321 314 310 309 304 300 294 290 288 289 289 289 286 287 288 288 288 288 289 293 294 294 293 292 293
271 276 279 281 282 284 289 293 295 294 291 292 295 299 302 305 306 309 314 314 309 305 300 299 296 291 290 289 288 288 290 291 285 286 287 287 288 292 292 293 294 296 296
268 274 278 280 281 281 284 289 292 294 292 289 290 291 295 295 295 297 302 306 306 306 305 300 294 291 290 288 287 288 290 290 289 287 289 292 292 296 292 290 293 295 295
266 272 275 276 276 278 281 285 287 288 293 292 289 287 291 287 285 287 292 297 301 302 304 302 296 293 293 290 289 291 293 293 291 292 295 295 296 294 291 291 292 294 294
264 268 272 273 274 275 279 282 281 287 290 289 287 287 288 285 283 283 285 290 295 297 298 300 297 296 296 295 294 293 293 293 293 295 298 296 296 296 291 290 291 292 293
266 267 269 269 271 275 277 278 281 285 285 285 284 282 282 281 280 279 280 285 290 292 293 294 293 295 296 296 296 293 292 291 292 296 297 297 298 299 293 291 294 294 293
266 269 270 268 269 272 276 278 283 285 283 283 284 283 279 278 279 279 280 284 285 286 288 288 290 292 293 294 296 294 294 294 294 293 294 296 298 300 298 294 295 296 295
264 268 268 267 268 272 274 277 281 286 285 281 282 283 280 278 279 278 280 283 285 286 286 286 287 289 290 290 292 293 292 294 295 292 291 293 295 297 299 299 297 299 299
263 266 270 268 269 272 273 276 279 282 282 279 279 278 278 278 279 278 279 282 283 285 286 284 286 289 289 289 286 286 289 292 294 294 291 293 294 296 297 298 301 303 304
264 267 270 271 269 271 274 275 276 278 276 274 274 275 275 276 278 281 282 282 284 283 282 284 286 290 290 289 287 287 289 292 293 293 293 293 295 296 298 300 302 303 302
264 267 270 271 271 270 272 274 272 272 271 270 270 272 271 274 278 281 280 280 281 279 279 282 283 286 289 290 289 288 289 290 292 293 294 293 293 295 297 300 302 302 302
262 266 270 271 269 269 271 272 271 270 269 269 269 269 270 274 279 282 280 279 278 276 278 281 281 284 286 287 288 287 289 288 290 292 293 294 294 295 296 298 300 300 301
263 265 267 267 266 267 268 269 271 270 270 269 269 269 271 273 276 279 280 278 278 279 279 281 283 285 286 284 286 285 287 287 288 290 292 293 294 295 295 296 298 299 299
262 264 264 265 266 265 266 268 270 270 270 270 270 271 272 272 274 275 276 278 280 280 280 280 282 284 284 283 283 285 285 286 287 289 291 293 294 295 296 296 297 297 298
260 262 264 264 266 267 267 267 267 268 269 270 270 272 272 272 273 274 275 278 280 280 281 281 281 281 281 282 281 282 284 286 288 289 291 293 295 295 296 296 296 297 299
261 262 262 263 266 267 267 266 267 268 270 271 271 272 272 272 272 273 274 276 279 281 280 280 281 281 282 282 282 282 283 286 288 289 291 293 294 295 297 297 296 297 298
259 262 263 265 265 264 265 265 266 267 269 271 272 272 271 271 271 272 274 276 278 279 279 279 281 283 283 282 282 283 283 286 289 290 291 293 294 295 297 297 297 298 298
Height
5921 5920 5919 5917 5916 5914 5913 5912 5911 5909 5908 5907 5905 5904 5903 5902 5901 5899 5899 5898 5897 5897 5896 5896 5896 5896 5896 5896 5896 5896 5896 5896 5896 5896 5896 5896 5896 5896 5896 5896 5896 5895 5895
5921 5920 5918 5917 5916 5914 5913 5912 5911 5909 5908 5907 5905 5904 5903 5901 5900 5899 5898 5898 5897 5896 5896 5896 5895 5895 5895 5895 5896 5896 5896 5896 5896 5896 5896 5896 5896 5896 5895 5895 5895 5895 5894
5920 5919 5918 5917 5916 5915 5913 5912 5910 5909 5907 5906 5905 5904 5903 5901 5900 5899 5898 5897 5896 5896 5895 5895 5895 5895 5895 5895 5895 5896 5896 5896 5896 5895 5895 5895 5895 5895 5895 5894 5894 5894 5893
5919 5917 5917 5916 5915 5914 5913 5912 5910 5909 5907 5906 5905 5903 5902 5901 5899 5898 5898 5897 5896 5895 5895 5895 5894 5894 5895 5895 5895 5895 5895 5895 5895 5895 5894 5895 5894 5894 5894 5894 5893 5893 5892
5917 5916 5915 5915 5914 5913 5912 5910 5909 5908 5906 5905 5904 5903 5901 5900 5899 5898 5897 5896 5896 5895 5895 5894 5894 5894 5894 5894 5894 5894 5894 5894 5894 5894 5893 5893 5893 5892 5892 5892 5892 5891 5891
5915 5914 5914 5913 5912 5912 5911 5909 5908 5907 5905 5903 5902 5901 5900 5899 5898 5897 5896 5896 5895 5894 5894 5894 5893 5893 5893 5893 5893 5893 5893 5893 5893 5892 5892 5891 5891 5891 5890 5890 5890 5890 5889
5913 5912 5912 5911 5910 5909 5909 5908 5907 5906 5904 5902 5900 5899 5898 5898 5897 5896 5896 5895 5895 5894 5894 5893 5893 5892 5892 5892 5892 5892 5892 5891 5891 5891 5890 5889 5889 5889 5889 5888 5888 5887 5887
5910 5909 5909 5908 5907 5907 5906 5906 5905 5904 5902 5901 5899 5897 5897 5896 5896 5896 5895 5895 5894 5893 5893 5892 5892 5891 5891 5891 5891 5891 5890 5890 5890 5889 5888 5888 5887 5887 5887 5886 5886 5885 5884
5907 5907 5907 5907 5905 5905 5904 5903 5902 5901 5900 5899 5898 5898 5897 5896 5896 5895 5894 5894 5893 5892 5892 5891 5891 5890 5890 5890 5889 5889 5889 5888 5888 5887 5886 5886 5885 5885 5884 5883 5883 5882 5882
5905 5905 5905 5904 5903 5902 5901 5899 5898 5898 5898 5898 5898 5897 5897 5896 5895 5894 5893 5893 5892 5892 5891 5890 5890 5889 5889 5888 5888 5887 5887 5886 5886 5885 5884 5884 5883 5882 5881 5880 5879 5878 5878
5902 5902 5902 5902 5901 5900 5899 5897 5896 5896 5896 5896 5896 5896 5895 5895 5894 5893 5892 5891 5891 5890 5890 5889 5888 5887 5887 5886 5886 5885 5885 5884 5883 5882 5882 5881 5880 5879 5878 5877 5876 5875 5874
5899 5899 5899 5899 5898 5898 5897 5896 5895 5895 5895 5894 5894 5894 5894 5893 5893 5892 5891 5890 5890 5889 5888 5887 5886 5885 5885 5884 5884 5883 5882 5881 5880 5880 5879 5878 5877 5875 5874 5873 5872 5871 5871
5896 5896 5896 5896 5895 5895 5894 5894 5893 5893 5893 5892 5892 5892 5891 5891 5890 5890 5889 5889 5888 5887 5886 5885 5884 5884 5883 5882 5881 5881 5880 5879 5878 5877 5876 5875 5874 5872 5871 5869 5868 5868 5867
5892 5892 5893 5892 5892 5892 5891 5891 5891 5891 5890 5890 5889 5889 5888 5888 5888 5887 5887 5886 5886 5885 5884 5883 5882 5881 5880 5880 5879 5878 5877 5876 5875 5874 5873 5871 5870 5868 5867 5866 5865 5864 5863
5888 5888 5889 5889 5889 5889 5889 5889 5888 5888 5887 5887 5887 5886 5885 5885 5885 5885 5884 5884 5883 5882 5881 5881 5880 5879 5878 5877 5876 5875 5874 5873 5872 5871 5869 5868 5867 5865 5863 5863 5861 5860 5858
5884 5884 5885 5885 5886 5886 5886 5885 5885 5884 5884 5884 5883 5883 5882 5882 5881 5881 5881 5880 5880 5879 5878 5878 5877 5876 5875 5874 5873 5872 5871 5870 5868 5868 5866 5865 5863 5862 5860 5858 5857 5855 5854
5879 5880 5880 5881 5881 5882 5882 5882 5881 5881 5880 5880 5880 5879 5878 5878 5878 5877 5877 5877 5876 5875 5875 5874 5873 5872 5871 5870 5869 5868 5867 5866 5865 5864 5863 5861 5860 5858 5856 5855 5853 5851 5849
5874 5875 5876 5876 5876 5877 5877 5877 5876 5876 5876 5876 5876 5875 5875 5875 5874 5873 5873 5872 5872 5871 5871 5870 5869 5868 5867 5866 5865 5864 5863 5862 5861 5860 5859 5858 5856 5854 5853 5851 5849 5847 5845
5869 5870 5870 5870 5871 5871 5871 5871 5872 5872 5872 5872 5871 5871 5871 5871 5870 5869 5868 5868 5868 5867 5867 5866 5865 5864 5863 5862 5861 5861 5860 5859 5857 5856 5855 5853 5852 5851 5849 5847 5845 5843 5840
5862 5864 5864 5865 5865 5866 5866 5867 5867 5867 5867 5867 5867 5866 5866 5866 5865 5865 5864 5863 5863 5863 5862 5862 5861 5860 5859 5858 5857 5856 5856 5855 5853 5852 5851 5849 5848 5846 5844 5842 5840 5838 5835
5856 5857 5858 5859 5860 5860 5861 5862 5862 5862 5862 5862 5861 5861 5861 5861 5861 5860 5860 5859 5858 5858 5857 5857 5856 5856 5855 5854 5853 5852 5851 5850 5849 5847 5846 5844 5842 5841 5839 5837 5834 5832 5830
5850 5851 5852 5853 5854 5855 5856 5856 5856 5856 5856 5856 5856 5856 5856 5856 5856 5856 5855 5854 5853 5852 5852 5852 5851 5850 5850 5849 5847 5846 5846 5845 5844 5842 5841 5839 5837 5835 5833 5831 5828 5826 5823
5843 5844 5845 5846 5847 5848 5849 5850 5850 5850 5850 5850 5850 5850 5850 5850 5850 5850 5849 5849 5848 5847 5847 5846 5846 5845 5843 5843 5842 5841 5840 5839 5838 5836 5835 5833 5831 5829 5827 5824 5822 5819 5816
5836 5838 5839 5840 5841 5841 5842 5843 5844 5844 5844 5844 5844 5844 5844 5844 5844 5844 5844 5843 5842 5842 5841 5840 5839 5838 5838 5837 5836 5835 5834 5832 5831 5830 5829 5827 5824 5822 5820 5817 5815 5812 5809
5829 5830 5831 5832 5833 5834 5835 5836 5836 5837 5837 5837 5838 5838 5838 5838 5838 5838 5838 5837 5836 5835 5834 5834 5833 5832 5832 5831 5830 5828 5827 5826 5825 5823 5822 5820 5818 5815 5813 5810 5807 5805 5801
5820 5822 5823 5824 5825 5826 5827 5828 5829 5830 5830 5831 5831 5831 5831 5831 5832 5832 5831 5831 5830 5829 5828 5827 5827 5826 5825 5824 5823 5822 5821 5820 5818 5817 5815 5813 5810 5808 5805 5802 5800 5797 5794